Flag for India Weather past 2 weeks in Kapurthala, Punjab, India

Now
46 °F

Fog.


Feels Like: 44 °F
Forecast: 38 / 65 °F
Wind: 5 mph from West

Location: Amritsar Airport

Current Time: Dec 18, 2014 at 4:11:52 PM

Latest Report: Dec 18, 2014 at 3:30 PM


Visibility: 0 mi

Pressure: 30.15 "Hg

Humidity: 100%

Dew point: 46 °F

Location of KapurthalaLocation

Historic Weather in Kapurthala — Graph

°F

Kapurthala temperature yesterday

Maximum temperature yesterday: 57 °F (at 3:30 PM)
Minimum temperature yesterday: 37 °F (at 6:30 AM)
Average temperature yesterday: 46 °F

Past Weeks' High & Low Weather Summary

 TemperatureHumidityPressure
High79 °F (Dec 3, 3:00 PM)100% (Dec 4, 7:00 AM)30.21 "Hg (Dec 4, 7:00 AM)
Low37 °F (Dec 16, 7:30 AM)22% (Dec 9, 3:30 PM)29.77 "Hg (Dec 12, 2:30 PM)
Average55 °F72%30.06 "Hg
* Reported Dec 3 2:30 PM — Dec 18 2:30 PM, Kapurthala, Weather by CustomWeather, © 2014

Note: Actual official high and low records may vary slightly from our data, if they occured in-between our weather recording intervals... More about our weather records

Advertising

Kapurthala weather history for previous 24 hours

 ConditionsComfort  
Time TempWeatherWind HumidityBarometerVisibility
2:30 PM
Dec 18
46 °FFog.6 mph100%30.15 "Hg0 mi
2:00 PM46 °FFog.7 mph100%30.15 "Hg0 mi
1:30 PM46 °FFog.6 mph100%30.15 "Hg0 mi
1:00 PM46 °FFog.1 mph100%30.15 "Hg0 mi
12:30 PM46 °FFog.2 mph100%30.18 "Hg0 mi
12:00 PM46 °FCool.3 mph100%30.18 "Hg0 mi
11:30 AM45 °FFog.No wind100%30.18 "Hg0 mi
10:30 AM45 °FQuite cool.3 mph100%30.21 "Hg0 mi
10:00 AM45 °FFog.No wind100%30.21 "Hg0 mi
9:30 AM46 °FFog.No wind100%30.18 "Hg0 mi
8:30 AM45 °FFog.No wind100%30.18 "Hg0 mi
6:30 AM45 °FFog.No wind100%30.15 "Hg0 mi
6:00 AM43 °FFog.No wind100%30.15 "Hg0 mi
5:30 AM43 °FFog.No wind100%30.12 "Hg0 mi
2:00 AM43 °FFog.No wind100%30.12 "Hg0 mi
11:30 PM
Dec 17
43 °FFog.No wind100%30.12 "Hg0 mi
10:30 PM41 °FFog.No wind100%30.12 "Hg0 mi
10:00 PM43 °FFog.No wind100%30.12 "Hg0 mi
9:30 PM41 °FFog.No wind100%30.12 "Hg0 mi
7:30 PM46 °FFog.No wind100%30.09 "Hg0 mi
7:00 PM48 °FFog.No wind100%30.09 "Hg0 mi
6:30 PM50 °FFog.No wind100%30.09 "Hg1 mi
6:00 PM50 °FFog.No wind100%30.09 "Hg1 mi
5:30 PM54 °FFog.No wind88%30.09 "Hg1 mi
5:00 PM55 °FFog.No wind82%30.09 "Hg1 mi
4:30 PM55 °FFog.No wind82%30.09 "Hg1 mi
4:00 PM57 °FFog.No wind77%30.09 "Hg1 mi
Weather by CustomWeather, © 2014

See weather overviewHow to use our weather pages